Regional Weather Roundup
Issued by NWS Cleveland, OH

Home | Current Version | Previous Version | Graphics & Text | Print | Product List | Glossary On
Versions: 1 2 3 4 5 6 7 8 9 10 11 12 13 14 15 16 17 18 19 20 21 22 23 24 25 26 27 28 29 30 31 32 33 34 35 36 37 38 39 40 41 42 43 44 45 46 47 48 49 50
000
ASUS41 KCLE 211610
RWRCLE
OHIO REGIONAL WEATHER ROUNDUP
NATIONAL WEATHER SERVICE WILMINGTON, OH
1200 PM EDT MON AUG 21 2017

NOTE: "FAIR" INDICATES FEW OR NO CLOUDS BELOW 12,000 FEET WITH NO
SIGNIFICANT WEATHER AND/OR OBSTRUCTIONS TO VISIBILITY.

OHZ001>008-015>018-024>027-034-035-043-044-211700-
   NORTHWEST OHIO

CITY           SKY/WX    TMP DP  RH WIND       PRES   REMARKS
DEFIANCE       FAIR      82  67  60 S7        30.10F
FINDLAY        FAIR      85  67  54 S7        30.11F
TOLEDO EXPRESS FAIR      82  71  69 S7        30.10F
TOLEDO EXEC    FAIR      84  69  60 S6        30.11F
LIMA           FAIR      84  71  65 SW8       30.13F
$$

OHZ009>014-019>023-028>033-038-089-211700-
   NORTHEAST OHIO

CITY           SKY/WX    TMP DP  RH WIND       PRES   REMARKS
CLE-HOPKINS    FAIR      88  63  43 SW7       30.15S
CLE-LAKEFRONT  FAIR      80  68  66 VRB5      30.12S
CUY CO. ARPT   MOSUNNY   86  68  54 NW9       30.15S
LORAIN-ELYRIA  FAIR      83  63  50 W3        30.14F
ASHTABULA      FAIR      82  70  66 VRB3      30.15S
AKRON-CANTON   FAIR      86  66  51 SW12      30.17S
WOOSTER        FAIR      84  69  60 SW6       30.16F
MANSFIELD      FAIR      84  70  62 S6        30.16F
YOUNGSTOWN     PTSUNNY   86  65  49 VRB7      30.16S
$$

OHZ042-051>053-060>062-070>072-077>081-211700-
  SOUTHWEST OHIO

CITY           SKY/WX    TMP DP  RH WIND       PRES   REMARKS
CINC-COVINGTON FAIR      86  71  60 SW9       30.17S HX  91
CINC-LUNKEN    FAIR      88  73  61 S10       30.16F HX  95
HAMILTON       FAIR      89  69  51 SW8       30.16F HX  93
DAYTON         CLOUDY    85  67  54 SW10      30.17S
WRIGHT-PAT AFB FAIR      88  66  47 SW10      30.15S HX  91
DAYTON GENERAL FAIR      85  69  58 S9        30.16S
WILMINGTON     FAIR      86  72  62 S7        30.18S HX  92
$$

OHZ036-037-039>041-045>050-054>059-063>069-073>076-082>088-211700-
  CENTRAL AND SOUTHEAST OHIO

CITY           SKY/WX    TMP DP  RH WIND       PRES   REMARKS
COLUMBUS       FAIR      84  72  67 SW5       30.16S
OSU AIRPORT    FAIR      86  73  65 S5        30.16S HX  93
BOLTON FIELD   SUNNY     82  73  74 SW5       30.17S
RICKENBACK AFB FAIR      84  74  71 SW7       30.16F HX  90
NEWARK         FAIR      84  71  65 VRB3      30.16S
MARION         FAIR      84  70  62 S7        30.16S
LANCASTER      FAIR      85  72  65 W6        30.18S HX  91
ZANESVILLE     FAIR      84  71  65 VRB6      30.17F
NEW PHILLY     FAIR      83  72  69 VRB3      30.18R
$$




USA.gov is the U.S. government's official web portal to all federal, state and local government web resources and services.